Regional Weather Roundup
Issued by NWS Newport/Morehead, NC

Current Version | Previous Version | Graphics & Text | Print | Product List | Glossary Off
Versions: 1 2 3 4 5 6 7 8 9 10 11 12 13 14 15 16 17 18 19 20 21 22 23 24 25 26 27 28 29 30 31 32 33 34 35 36 37 38 39 40 41 42 43 44 45 46 47 48 49 50

000
ASUS42 KMHX 200310
RWRMHX
WEATHER ROUNDUP FOR EASTERN NORTH CAROLINA
NATIONAL WEATHER SERVICE NEWPORT/MOREHEAD CITY NC
1000 PM EST FRI DEC 19 2014

NOTE: "FAIR" INDICATES FEW OR NO CLOUDS BELOW 12,000 FEET
WITH NO SIGNIFICANT WEATHER AND/OR OBSTRUCTIONS TO VISIBILITY

NCZ015>017-031-032-045>047-102-103-200400-
NORTH COAST

CITY           SKY/WX    TMP DP  RH WIND       PRES   REMARKS
EDENTON          N/A     34  31  88 NE3       30.23R
ELIZABETH CITY PTCLDY    40  31  70 NE6       30.23R
KITTY HAWK     MOCLDY    40  32  71 N3        30.21R
MANTEO         MOCLDY    40  32  71 N6        30.22R

$$

NCZ045>047-081-094-103-104-200400-
CENTRAL COAST

CITY           SKY/WX    TMP DP  RH WIND       PRES   REMARKS
FRISCO         PTCLDY    41  34  76 NE3       30.21R
SWANQUARTER      N/A     37 N/A N/A NE2       30.18S

$$

NCZ095-097-098-100-101-200400-
SOUTHERN COAST

CITY           SKY/WX    TMP DP  RH WIND       PRES   REMARKS
BEAUFORT       PTCLDY    41  34  76 NE5       30.21S
CEDAR ISLAND     N/A     46 N/A N/A N6        30.24S
JACKSONVILLE   MOCLDY    41  32  70 NE6       30.20S
PINEY ISLAND   PTCLDY    46  34  62 NE6       30.21R
WILMINGTON     CLOUDY    44  34  67 NE6       30.19S


$$

NCZ011>013-027>030-043-044-078>080-089-090>093-098-200400-
COASTAL PLAIN

CITY           SKY/WX    TMP DP  RH WIND       PRES   REMARKS
AHOSKIE        MOCLDY    30  28  93 CALM      30.23S
CLINTON        CLOUDY    42  33  70 CALM      30.21R
ELIZABETHTOWN  CLOUDY    44  32  64 CALM      30.19R
GOLDSBORO      CLOUDY    38  37  97 CALM      30.20R
GREENVILLE     PTCLDY    34  32  93 CALM      30.23R
HAVELOCK       MOCLDY    41  34  76 NE3       30.22R
KENANSVILLE    CLOUDY    38  33  82 CALM      30.22R
KINSTON        MOCLDY    36  33  88 CALM      30.22R
NEW BERN       MOCLDY    41  32  70 CALM      30.22S
RICHLANDS      CLOUDY    37  30  75 NE7       30.21R
ROCKY MOUNT    MOCLDY    35  31  85 CALM      30.22R
WASHINGTON     PTCLDY    35  31  88 CALM      30.22S
WHITEVILLE     CLOUDY    46  32  59 CALM      30.18R

$$

AMZ130-135-150-152-154-156-158-170-250-252-270-ANZ085-086-088-633-658-670-200400-
MARINE OBSERVATIONS

STATION/POSITION TIME  TEMP    WIND        PRES    WAVE   SWELL
                       AIR SEA DIR/SP/G            HT/PER HT/PER
                 (UTC) (F)     (DEG/KT/KT) (MB)    (FT/S) (FT/S)
CHESAPEAKE LIGHT 0200   40     360/ 16/ 18 1023.4
64 E VA BEACH    0300   43 54  340/ 16/ 19 1022.1    4/ 5
DUCK             0300   42 47   10/  9/ 13 1022.2
2 E DUCK         0300      47                N/A     3/ 6
10 NE DUCK       0300      51                N/A     4/ 6
OREGON INLET     0300   40 50  330/  5/  7 1022.9
13E OREGON INLT  0300      53                N/A     4/ 6
HATTERAS CG      0300   44 53   40/  5/  7 1023.3
DIAMOND BUOY     0300   46                 1023.0    3/ 6
17 S OCRACOKE    NOT AVBL
CAPE LOOKOUT     0200   47      20/  7/  9 1022.4
BEAUFORT LAB     0300   44 53   30/  3/  5 1021.6
30 SE NEW RIVER  0300   52 61   20/ 10/ 12 1022.7    1/10   2/10
5 SE WRIGHTSVLE  NOT AVBL
225 S CAPE HAT   0155   66 72   10/  6/  8 1020.7    3/11   2/11
41 SE CHARLESTON 0300   64 68   30/  4/  8 1020.2    2/10   2/10

$$


USA.gov is the U.S. government's official web portal to all federal, state and local government web resources and services.